Regional Weather Roundup
Issued by NWS

Home | Current Version | Previous Version | Graphics & Text | Print | Product List | Glossary On
Versions: 1 2 3 4 5 6 7 8 9 10 11 12 13 14 15 16 17 18 19 20 21 22 23 24 25 26 27 28 29 30 31 32 33 34 35 36 37 38 39 40 41 42 43 44 45 46 47 48 49 50
000
ASUS45 KBOU 211910
RWRCO

WEATHER ROUNDUP FOR COLORADO
NATIONAL WEATHER SERVICE DENVER/BOULDER CO
1200 PM MST WED FEB 21 2018

NOTE: "FAIR" INDICATES FEW OR NO CLOUDS BELOW 12000 FEET WITH NO
SIGNIFICANT WEATHER AND/OR OBSTRUCTIONS TO VISIBILITY.

COZ001>005-013-030-031-212000-
...NORTHWEST COLORADO...

CITY           SKY/WX    TMP DP  RH WIND       PRES   REMARKS
CRAIG          FAIR      12   1  61 CALM      30.11F
HAYDEN         FAIR      17   5  59 CALM      30.09F
MEEKER         FAIR      21   7  54 CALM      30.07F
RANGELY        NOT AVBL
RABBIT EARS PA FAIR      12   5  73 SW5       29.93F WCI   4
STEAMBOAT SPGS FAIR      12   0  58 CALM      30.07F
WALDEN         FAIR      19   0  42 S9        30.03F WCI   9
$$

COZ006>008-011-212000-
...WEST CENTRAL VALLEYS...

CITY           SKY/WX    TMP DP  RH WIND       PRES   REMARKS
GRAND JUNCTION FAIR      32   9  38 SE10      30.12F WCI  24
MONTROSE       FAIR      25  13  60 W6        30.11F WCI  18
EAGLE          FAIR      21   5  50 CALM      30.11F
RIFLE          FAIR      24   9  52 CALM      30.11F
DELTA          FAIR      34   7  31 S3        30.12F
NUCLA          FAIR      32   9  37 NW7       30.10F WCI  26
$$

COZ017>023-064>068-212000-
...SOUTHWEST COLORADO...

CITY           SKY/WX    TMP DP  RH WIND       PRES   REMARKS
DURANGO        CLOUDY    30  15  53 E7        30.09F WCI  23
CORTEZ         PTSUNNY   36  13  38 S7G21     30.06F
PAGOSA SPRINGS CLOUDY    28  10  45 CALM      30.09F
TELLURIDE      FAIR      24   1  36 S23G30    29.97F WCI   9
WOLF CREEK PAS CLOUDY     9   9 100 S22G32    30.02S WCI -11
$$

COZ009-010-012-014-032>034-037-058>063-212000-
...CENTRAL COLORADO...

CITY           SKY/WX    TMP DP  RH WIND       PRES   REMARKS
ASPEN          FAIR      19   3  49 N8        30.00F WCI   9
BUENA VISTA    FAIR      27   3  36 SE9G16    30.02F WCI  18
COPPER MTN     FAIR      16 -11  29 S14G22    29.91S WCI   1
BERTHOUD PASS  FAIR       5  -6  61 W23G32    29.88F WCI -17
COTTONWOOD PAS FAIR      27  10  50 SE6       29.98F WCI  20
GUNNISON       FAIR      19   4  51 E6        30.08F WCI  11
GRANBY         FAIR      10   0  61 CALM      30.05F
KREMMLING      FAIR      19   3  49 CALM      30.10F
LEADVILLE      FAIR      16  -3  43 VRB6      29.94F WCI   7
MONARCH PASS     N/A      9   5  85 SW14G22   30.05S WCI  -8
SALIDA         FAIR      32   3  29 S10G18    30.11F WCI  24
SUNLIGHT       CLOUDY    12   5  73 SW7       29.99S WCI   2
WILKERSON PASS FAIR      14   0  52 SW9G18    29.97S WCI   2
$$

COZ069>075-212000-
...SAN LUIS VALLEY/SANGRE DE CRISTO MOUNTAINS...

CITY           SKY/WX    TMP DP  RH WIND       PRES   REMARKS
ALAMOSA        FAIR      28  10  46 VRB5      30.07F WCI  23
DEL NORTE      FAIR      25   2  36 CALM      30.07F
LA VETA PASS   CLOUDY    27  12  54 SW7G24    30.12F WCI  19
SAGUACHE       FAIR      28   3  34 SE5       30.07F WCI  23
$$

COZ035-036-038>040-212000-
...NORTHERN COLORADO FRONT RANGE...

CITY           SKY/WX    TMP DP  RH WIND       PRES   REMARKS
DENVER INTL AP FAIR      21  13  71 N8        30.14F WCI  11
AURORA         MOSUNNY   24  12  60 N6        30.13F WCI  17
FRONT RANGE AP SUNNY     28  16  59 E9        30.15F WCI  20
ERIE MUNI ARPT FAIR      16   9  73 N5        30.23F WCI   9
BOULDER MUN AP FAIR      19  10  68 N3        30.17F
CENTENNIAL     FAIR      25  13  60 VRB7      30.11F WCI  17
BROOMFIELD     SUNNY     19  10  68 W6        30.14F WCI  11
FORT COLLINS   NOT AVBL
LONGMONT       NOT AVBL
$$

COZ041-046-047-076>085-087-088-212000-
...PIKES PEAK/PALMER DIVIDE AND SOUTHERN FOOTHILLS...

CITY           SKY/WX    TMP DP  RH WIND       PRES   REMARKS
COLO. SPRINGS  FAIR      22  14  71 S10       30.15F WCI  11
A. F. ACADEMY  MOSUNNY   20   8  60 S7        30.11F WCI  11
SCHRIEVER AFB  NOT AVBL
CHEYENNE MTN   FLURRIES  20  14  77 SE17G24   30.03F WCI   6
ELLICOTT         N/A    N/A N/A N/A S13G18    30.14F
FALCON         FAIR      21  11  64 MISG      30.12F
FORT CARSON    FAIR      25  13  60 S13G18    30.14F WCI  14
LIMON          FAIR      26   8  46 S18G29    30.18F WCI  13
MONUMENT HILL  FAIR      21  12  68 S14       30.08F WCI   8
CANON CITY     SUNNY     27  12  54 E5        30.17F WCI  21
WALSENBURG     NOT AVBL
TRINIDAD       FAIR      28  10  46 E8        30.16F WCI  20
$$

COZ042>045-048>051-090-091-212000-
...NORTHEAST COLORADO...

CITY           SKY/WX    TMP DP  RH WIND       PRES   REMARKS
GREELEY ARPT   FAIR      10   3  73 N3        30.23F
AKRON          FAIR      25  11  55 S16       30.23F WCI  12
BURLINGTON     FAIR      23   6  48 S10       30.31F WCI  12
WRAY           FAIR      28   9  43 SE9       30.34F WCI  20
YUMA           NOT AVBL
STERLING       FAIR      27  10  50 CALM      30.27F
HOLYOKE        FAIR      28  10  47 SE12      30.33F WCI  18
FORT MORGAN    FAIR      24  10  56 SE6       30.23F WCI  17
$$

COZ086-089-092>099-212000-
...SOUTHEAST COLORADO...

CITY           SKY/WX    TMP DP  RH WIND       PRES   REMARKS
PUEBLO         FAIR      26  10  50 VRB6      30.23F WCI  19
LA JUNTA       FAIR      26   6  42 E9G16     30.28F WCI  17
LAMAR          CLOUDY    23   2  40 SE7       30.33F WCI  15
SPRINGFIELD      N/A     17   9  70 S5        30.29F WCI  10
$$



USA.gov is the U.S. government's official web portal to all federal, state and local government web resources and services.